QPF
0.00 0.00 0.00 0.00 0.00 0.00 0.01 0.02 0.02 0.03 0.02 0.01 0.01 0.01 0.00 0.00 0.00 0.00 0.00 0.00 0.00 0.00 0.01 0.01 0.01 0.01 0.02 0.01 0.01 0.01 0.01 0.00 0.00 0.00 0.00 0.00 0.01 0.02 0.04 0.05 0.08 0.05 0.01
0.00 0.00 0.00 0.00 0.00 0.01 0.01 0.02 0.03 0.04 0.03 0.02 0.02 0.02 0.01 0.01 0.01 0.00 0.00 0.00 0.00 0.00 0.00 0.00 0.00 0.01 0.01 0.01 0.01 0.01 0.01 0.00 0.00 0.00 0.01 0.01 0.00 0.01 0.04 0.05 0.11 0.07 0.01
0.00 0.00 0.00 0.00 0.00 0.01 0.01 0.02 0.03 0.04 0.04 0.03 0.03 0.02 0.02 0.01 0.01 0.00 0.00 0.00 0.00 0.00 0.00 0.01 0.01 0.01 0.00 0.01 0.01 0.00 0.00 0.00 0.00 0.04 0.11 0.09 0.02 0.01 0.03 0.06 0.08 0.05 0.01
0.00 0.00 0.00 0.00 0.00 0.00 0.01 0.02 0.03 0.04 0.05 0.04 0.03 0.03 0.02 0.01 0.01 0.01 0.00 0.00 0.00 0.00 0.00 0.00 0.00 0.00 0.00 0.00 0.00 0.00 0.00 0.00 0.02 0.09 0.24 0.12 0.04 0.01 0.02 0.03 0.03 0.02 0.02
0.00 0.00 0.00 0.00 0.00 0.00 0.01 0.01 0.03 0.04 0.05 0.05 0.04 0.02 0.02 0.02 0.01 0.01 0.00 0.00 0.00 0.00 0.00 0.00 0.00 0.00 0.00 0.00 0.00 0.00 0.00 0.01 0.02 0.09 0.15 0.13 0.10 0.02 0.01 0.02 0.02 0.02 0.02
0.00 0.00 0.00 0.00 0.00 0.00 0.01 0.01 0.02 0.03 0.04 0.04 0.03 0.02 0.02 0.01 0.01 0.01 0.01 0.01 0.00 0.00 0.01 0.01 0.00 0.00 0.00 0.00 0.00 0.00 0.00 0.01 0.03 0.08 0.05 0.08 0.08 0.01 0.01 0.02 0.03 0.02 0.02
0.00 0.00 0.00 0.00 0.00 0.00 0.01 0.01 0.02 0.02 0.02 0.02 0.02 0.02 0.01 0.01 0.01 0.01 0.01 0.01 0.01 0.01 0.01 0.01 0.01 0.00 0.00 0.00 0.00 0.00 0.00 0.01 0.06 0.06 0.02 0.09 0.09 0.01 0.00 0.02 0.04 0.03 0.02
0.00 0.00 0.00 0.00 0.00 0.00 0.00 0.01 0.01 0.01 0.01 0.02 0.02 0.01 0.01 0.01 0.01 0.01 0.01 0.01 0.01 0.01 0.01 0.01 0.01 0.01 0.01 0.01 0.00 0.00 0.00 0.01 0.04 0.04 0.02 0.08 0.05 0.00 0.00 0.01 0.03 0.03 0.03
0.00 0.00 0.00 0.00 0.00 0.00 0.00 0.00 0.01 0.01 0.02 0.02 0.02 0.01 0.01 0.01 0.01 0.01 0.02 0.02 0.02 0.01 0.01 0.01 0.01 0.01 0.02 0.01 0.01 0.00 0.00 0.00 0.03 0.03 0.03 0.06 0.01 0.00 0.00 0.01 0.02 0.03 0.03
0.00 0.00 0.00 0.00 0.01 0.01 0.01 0.01 0.01 0.01 0.02 0.02 0.02 0.01 0.01 0.01 0.01 0.02 0.02 0.03 0.02 0.03 0.03 0.02 0.02 0.02 0.02 0.01 0.01 0.01 0.00 0.00 0.00 0.02 0.04 0.05 0.01 0.00 0.00 0.00 0.01 0.02 0.03
0.01 0.01 0.00 0.00 0.01 0.02 0.02 0.02 0.02 0.02 0.02 0.02 0.03 0.03 0.02 0.04 0.07 0.09 0.08 0.07 0.04 0.03 0.03 0.03 0.02 0.03 0.03 0.02 0.02 0.01 0.01 0.00 0.00 0.03 0.05 0.05 0.02 0.01 0.01 0.01 0.01 0.01 0.01
0.03 0.04 0.03 0.02 0.03 0.04 0.03 0.05 0.05 0.06 0.08 0.06 0.10 0.11 0.11 0.13 0.13 0.12 0.15 0.10 0.07 0.05 0.04 0.04 0.03 0.03 0.03 0.03 0.09 0.07 0.02 0.01 0.01 0.03 0.11 0.12 0.07 0.04 0.03 0.02 0.02 0.02 0.01
0.04 0.05 0.13 0.08 0.05 0.03 0.04 0.06 0.08 0.10 0.16 0.12 0.12 0.13 0.16 0.15 0.12 0.11 0.16 0.16 0.14 0.11 0.10 0.08 0.06 0.04 0.07 0.10 0.16 0.16 0.07 0.02 0.02 0.02 0.08 0.11 0.10 0.06 0.04 0.04 0.04 0.03 0.02
0.03 0.03 0.04 0.05 0.04 0.04 0.05 0.06 0.08 0.09 0.12 0.11 0.12 0.11 0.16 0.16 0.14 0.15 0.19 0.20 0.18 0.19 0.19 0.15 0.14 0.12 0.13 0.15 0.16 0.15 0.09 0.04 0.02 0.03 0.08 0.11 0.10 0.08 0.05 0.04 0.04 0.05 0.05
0.02 0.03 0.03 0.02 0.04 0.05 0.05 0.07 0.08 0.08 0.09 0.11 0.12 0.11 0.12 0.15 0.16 0.16 0.19 0.20 0.18 0.20 0.21 0.18 0.17 0.19 0.20 0.17 0.13 0.10 0.08 0.05 0.04 0.05 0.11 0.16 0.11 0.08 0.06 0.04 0.03 0.04 0.06
0.03 0.02 0.02 0.03 0.05 0.06 0.06 0.09 0.10 0.08 0.11 0.11 0.11 0.10 0.10 0.14 0.17 0.15 0.15 0.16 0.14 0.14 0.16 0.16 0.16 0.18 0.17 0.17 0.13 0.10 0.08 0.09 0.10 0.09 0.11 0.22 0.18 0.09 0.06 0.05 0.04 0.03 0.04
0.03 0.02 0.04 0.05 0.07 0.09 0.10 0.11 0.09 0.08 0.13 0.15 0.10 0.10 0.10 0.13 0.16 0.14 0.12 0.11 0.11 0.10 0.12 0.13 0.13 0.14 0.13 0.13 0.13 0.14 0.13 0.11 0.11 0.13 0.14 0.19 0.18 0.13 0.09 0.07 0.05 0.04 0.04
0.04 0.05 0.06 0.06 0.08 0.09 0.09 0.10 0.11 0.10 0.11 0.10 0.08 0.08 0.09 0.11 0.12 0.11 0.09 0.09 0.10 0.10 0.10 0.10 0.10 0.12 0.12 0.13 0.12 0.12 0.15 0.13 0.11 0.10 0.12 0.14 0.16 0.14 0.15 0.11 0.07 0.05 0.05
0.05 0.06 0.06 0.06 0.06 0.08 0.09 0.08 0.10 0.09 0.09 0.08 0.08 0.09 0.09 0.08 0.07 0.07 0.08 0.08 0.08 0.08 0.08 0.08 0.12 0.11 0.12 0.12 0.12 0.12 0.08 0.07 0.06 0.07 0.11 0.09 0.10 0.11 0.13 0.13 0.09 0.07 0.05
0.04 0.05 0.06 0.06 0.06 0.07 0.07 0.08 0.10 0.09 0.09 0.08 0.07 0.07 0.06 0.06 0.05 0.05 0.06 0.07 0.07 0.08 0.09 0.12 0.15 0.14 0.13 0.13 0.11 0.11 0.09 0.06 0.05 0.05 0.06 0.05 0.05 0.06 0.08 0.14 0.17 0.09 0.06
0.03 0.03 0.03 0.04 0.04 0.05 0.06 0.07 0.07 0.06 0.05 0.05 0.03 0.03 0.03 0.03 0.02 0.03 0.04 0.05 0.05 0.07 0.08 0.08 0.10 0.11 0.11 0.11 0.09 0.08 0.06 0.03 0.03 0.02 0.03 0.04 0.03 0.04 0.07 0.12 0.18 0.19 0.13
0.02 0.02 0.02 0.03 0.03 0.03 0.04 0.04 0.04 0.03 0.02 0.02 0.01 0.01 0.01 0.01 0.01 0.02 0.03 0.03 0.03 0.04 0.04 0.05 0.06 0.06 0.05 0.07 0.06 0.06 0.04 0.02 0.03 0.01 0.03 0.03 0.04 0.06 0.06 0.08 0.15 0.17 0.16
0.01 0.01 0.01 0.02 0.02 0.02 0.02 0.02 0.03 0.02 0.02 0.02 0.01 0.02 0.01 0.00 0.01 0.01 0.01 0.01 0.02 0.01 0.02 0.04 0.04 0.04 0.05 0.05 0.05 0.05 0.03 0.02 0.02 0.01 0.01 0.03 0.04 0.05 0.05 0.07 0.09 0.14 0.14
0.00 0.01 0.01 0.01 0.01 0.01 0.01 0.02 0.02 0.02 0.02 0.02 0.02 0.02 0.02 0.01 0.00 0.00 0.01 0.01 0.01 0.01 0.01 0.01 0.03 0.04 0.05 0.04 0.04 0.04 0.03 0.03 0.03 0.02 0.01 0.02 0.03 0.04 0.04 0.03 0.05 0.10 0.15
0.00 0.01 0.01 0.01 0.01 0.01 0.01 0.02 0.02 0.02 0.02 0.02 0.01 0.02 0.01 0.01 0.01 0.00 0.01 0.01 0.01 0.01 0.01 0.01 0.02 0.02 0.03 0.03 0.03 0.04 0.04 0.05 0.05 0.03 0.02 0.01 0.01 0.01 0.02 0.02 0.03 0.05 0.09
0.01 0.01 0.01 0.02 0.03 0.01 0.01 0.02 0.02 0.02 0.02 0.01 0.01 0.02 0.01 0.01 0.01 0.01 0.01 0.01 0.01 0.01 0.01 0.02 0.02 0.02 0.03 0.03 0.03 0.03 0.03 0.04 0.04 0.04 0.03 0.02 0.01 0.01 0.01 0.03 0.04 0.05 0.07
MSLP
1008.93 1009.04 1009.32 1009.80 1010.44 1011.17 1011.88 1012.48 1012.92 1013.21 1013.37 1013.48 1013.63 1013.86 1014.20 1014.62 1015.06 1015.46 1015.77 1015.95 1016.02 1016.02 1015.99 1015.97 1016.01 1016.10 1016.22 1016.36 1016.46 1016.53 1016.54 1016.53 1016.51 1016.51 1016.56 1016.65 1016.79 1016.94 1017.10 1017.26 1017.40 1017.54 1017.69
1008.88 1009.08 1009.45 1010.00 1010.69 1011.43 1012.12 1012.68 1013.08 1013.32 1013.46 1013.57 1013.74 1014.01 1014.38 1014.82 1015.28 1015.68 1015.97 1016.14 1016.19 1016.18 1016.15 1016.15 1016.21 1016.32 1016.46 1016.59 1016.69 1016.74 1016.74 1016.71 1016.69 1016.71 1016.79 1016.93 1017.11 1017.30 1017.49 1017.66 1017.80 1017.93 1018.06
1008.84 1009.14 1009.60 1010.22 1010.95 1011.69 1012.36 1012.90 1013.26 1013.47 1013.60 1013.73 1013.91 1014.20 1014.58 1015.02 1015.45 1015.82 1016.07 1016.20 1016.24 1016.23 1016.23 1016.27 1016.37 1016.52 1016.68 1016.82 1016.90 1016.93 1016.90 1016.86 1016.84 1016.87 1016.99 1017.17 1017.40 1017.64 1017.87 1018.07 1018.22 1018.34 1018.45
1008.81 1009.21 1009.77 1010.46 1011.22 1011.98 1012.63 1013.14 1013.48 1013.68 1013.81 1013.95 1014.16 1014.45 1014.82 1015.23 1015.61 1015.92 1016.11 1016.20 1016.23 1016.23 1016.27 1016.36 1016.51 1016.70 1016.89 1017.03 1017.10 1017.09 1017.03 1016.96 1016.93 1016.98 1017.12 1017.35 1017.63 1017.93 1018.20 1018.43 1018.60 1018.73 1018.85
1008.79 1009.30 1009.95 1010.71 1011.51 1012.27 1012.91 1013.40 1013.72 1013.92 1014.06 1014.22 1014.44 1014.74 1015.09 1015.45 1015.77 1016.00 1016.13 1016.18 1016.20 1016.22 1016.30 1016.45 1016.66 1016.90 1017.11 1017.24 1017.28 1017.23 1017.13 1017.03 1016.98 1017.03 1017.20 1017.46 1017.79 1018.13 1018.44 1018.71 1018.91 1019.07 1019.21
1008.77 1009.39 1010.13 1010.96 1011.80 1012.55 1013.18 1013.64 1013.94 1014.14 1014.30 1014.48 1014.72 1015.02 1015.36 1015.67 1015.93 1016.10 1016.17 1016.19 1016.19 1016.24 1016.36 1016.57 1016.83 1017.10 1017.32 1017.44 1017.45 1017.35 1017.20 1017.06 1016.98 1017.03 1017.20 1017.49 1017.84 1018.22 1018.57 1018.87 1019.12 1019.31 1019.49
1008.74 1009.46 1010.30 1011.18 1012.04 1012.79 1013.39 1013.81 1014.10 1014.30 1014.47 1014.68 1014.94 1015.25 1015.58 1015.87 1016.08 1016.20 1016.23 1016.22 1016.23 1016.30 1016.46 1016.71 1017.01 1017.30 1017.51 1017.61 1017.57 1017.43 1017.23 1017.05 1016.94 1016.97 1017.14 1017.44 1017.81 1018.21 1018.59 1018.91 1019.19 1019.42 1019.64
1008.68 1009.50 1010.41 1011.34 1012.21 1012.94 1013.50 1013.89 1014.15 1014.34 1014.53 1014.76 1015.05 1015.38 1015.71 1016.00 1016.19 1016.28 1016.30 1016.28 1016.29 1016.38 1016.57 1016.85 1017.16 1017.45 1017.65 1017.72 1017.65 1017.46 1017.22 1017.00 1016.87 1016.89 1017.05 1017.34 1017.71 1018.11 1018.49 1018.84 1019.13 1019.39 1019.65
1008.59 1009.49 1010.47 1011.42 1012.28 1012.98 1013.49 1013.84 1014.06 1014.24 1014.44 1014.70 1015.02 1015.38 1015.74 1016.03 1016.23 1016.33 1016.35 1016.34 1016.36 1016.47 1016.67 1016.95 1017.26 1017.53 1017.71 1017.75 1017.64 1017.43 1017.17 1016.93 1016.79 1016.79 1016.94 1017.21 1017.57 1017.95 1018.33 1018.67 1018.97 1019.26 1019.54
1008.51 1009.46 1010.47 1011.43 1012.27 1012.92 1013.38 1013.67 1013.86 1014.02 1014.22 1014.51 1014.86 1015.26 1015.65 1015.98 1016.20 1016.32 1016.36 1016.37 1016.41 1016.52 1016.72 1016.98 1017.27 1017.52 1017.66 1017.68 1017.56 1017.33 1017.07 1016.84 1016.70 1016.69 1016.83 1017.09 1017.42 1017.78 1018.14 1018.46 1018.76 1019.05 1019.35
1008.45 1009.43 1010.45 1011.40 1012.19 1012.79 1013.19 1013.43 1013.58 1013.73 1013.93 1014.23 1014.61 1015.05 1015.48 1015.84 1016.10 1016.26 1016.33 1016.36 1016.41 1016.52 1016.70 1016.94 1017.19 1017.40 1017.52 1017.51 1017.39 1017.18 1016.94 1016.73 1016.60 1016.61 1016.74 1016.97 1017.27 1017.61 1017.93 1018.24 1018.53 1018.82 1019.13
1008.46 1009.45 1010.45 1011.36 1012.10 1012.64 1012.98 1013.18 1013.30 1013.43 1013.63 1013.93 1014.33 1014.79 1015.25 1015.65 1015.95 1016.15 1016.25 1016.31 1016.37 1016.47 1016.63 1016.82 1017.03 1017.19 1017.28 1017.27 1017.16 1016.97 1016.77 1016.60 1016.50 1016.52 1016.64 1016.86 1017.13 1017.43 1017.73 1018.02 1018.31 1018.59 1018.91
1008.59 1009.55 1010.51 1011.36 1012.05 1012.53 1012.82 1012.98 1013.07 1013.19 1013.38 1013.68 1014.08 1014.55 1015.02 1015.45 1015.78 1016.01 1016.15 1016.24 1016.31 1016.40 1016.52 1016.67 1016.82 1016.94 1017.01 1016.99 1016.89 1016.74 1016.58 1016.45 1016.38 1016.41 1016.52 1016.71 1016.96 1017.23 1017.51 1017.78 1018.07 1018.37 1018.69
1008.84 1009.75 1010.65 1011.44 1012.07 1012.50 1012.75 1012.88 1012.96 1013.06 1013.23 1013.52 1013.91 1014.36 1014.82 1015.25 1015.61 1015.87 1016.04 1016.15 1016.23 1016.31 1016.40 1016.51 1016.61 1016.69 1016.72 1016.70 1016.62 1016.50 1016.38 1016.28 1016.23 1016.25 1016.35 1016.51 1016.71 1016.95 1017.22 1017.49 1017.79 1018.10 1018.45
1009.21 1010.06 1010.88 1011.60 1012.16 1012.55 1012.78 1012.90 1012.97 1013.06 1013.22 1013.47 1013.82 1014.23 1014.67 1015.08 1015.44 1015.72 1015.92 1016.06 1016.16 1016.24 1016.31 1016.37 1016.44 1016.47 1016.48 1016.45 1016.38 1016.28 1016.18 1016.09 1016.04 1016.04 1016.09 1016.20 1016.37 1016.57 1016.82 1017.10 1017.42 1017.77 1018.14
1009.68 1010.45 1011.19 1011.83 1012.33 1012.69 1012.91 1013.03 1013.10 1013.19 1013.32 1013.53 1013.82 1014.16 1014.54 1014.92 1015.27 1015.56 1015.79 1015.96 1016.09 1016.17 1016.24 1016.28 1016.31 1016.32 1016.30 1016.26 1016.18 1016.09 1015.99 1015.90 1015.82 1015.77 1015.76 1015.80 1015.90 1016.06 1016.29 1016.57 1016.92 1017.31 1017.72
1010.19 1010.87 1011.52 1012.08 1012.53 1012.86 1013.09 1013.22 1013.31 1013.39 1013.49 1013.64 1013.85 1014.12 1014.43 1014.75 1015.07 1015.37 1015.63 1015.84 1016.00 1016.11 1016.19 1016.23 1016.25 1016.23 1016.20 1016.14 1016.06 1015.96 1015.85 1015.72 1015.59 1015.47 1015.38 1015.33 1015.34 1015.44 1015.63 1015.92 1016.28 1016.71 1017.17
1010.70 1011.28 1011.83 1012.31 1012.71 1013.03 1013.27 1013.43 1013.53 1013.61 1013.68 1013.78 1013.90 1014.08 1014.30 1014.56 1014.84 1015.14 1015.42 1015.68 1015.88 1016.04 1016.15 1016.20 1016.22 1016.20 1016.16 1016.09 1016.01 1015.90 1015.76 1015.59 1015.40 1015.19 1015.00 1014.84 1014.76 1014.78 1014.91 1015.17 1015.54 1016.00 1016.49
1011.16 1011.63 1012.08 1012.48 1012.84 1013.15 1013.40 1013.60 1013.73 1013.82 1013.86 1013.89 1013.94 1014.02 1014.15 1014.33 1014.58 1014.87 1015.18 1015.47 1015.73 1015.94 1016.09 1016.17 1016.21 1016.20 1016.16 1016.10 1016.02 1015.90 1015.74 1015.54 1015.28 1014.99 1014.69 1014.42 1014.22 1014.15 1014.21 1014.42 1014.77 1015.23 1015.75
1011.55 1011.91 1012.25 1012.57 1012.89 1013.19 1013.47 1013.71 1013.88 1013.97 1014.01 1013.99 1013.96 1013.95 1013.99 1014.11 1014.31 1014.59 1014.91 1015.24 1015.55 1015.81 1016.00 1016.13 1016.19 1016.20 1016.19 1016.15 1016.08 1015.97 1015.80 1015.57 1015.27 1014.90 1014.51 1014.13 1013.83 1013.64 1013.61 1013.75 1014.06 1014.49 1015.00
1011.85 1012.09 1012.33 1012.58 1012.86 1013.17 1013.48 1013.75 1013.97 1014.09 1014.12 1014.07 1013.98 1013.90 1013.86 1013.92 1014.08 1014.33 1014.66 1015.02 1015.36 1015.66 1015.90 1016.05 1016.15 1016.19 1016.20 1016.19 1016.15 1016.07 1015.92 1015.68 1015.36 1014.95 1014.49 1014.02 1013.62 1013.33 1013.20 1013.26 1013.49 1013.87 1014.34
1012.05 1012.19 1012.33 1012.52 1012.77 1013.09 1013.43 1013.76 1014.02 1014.19 1014.23 1014.17 1014.04 1013.91 1013.81 1013.81 1013.93 1014.15 1014.47 1014.84 1015.20 1015.52 1015.77 1015.95 1016.07 1016.14 1016.18 1016.21 1016.21 1016.16 1016.05 1015.85 1015.53 1015.11 1014.61 1014.10 1013.62 1013.24 1013.02 1012.97 1013.12 1013.41 1013.82
1012.14 1012.20 1012.28 1012.42 1012.66 1012.99 1013.37 1013.75 1014.08 1014.29 1014.36 1014.31 1014.17 1014.00 1013.87 1013.82 1013.89 1014.09 1014.38 1014.72 1015.07 1015.39 1015.64 1015.83 1015.95 1016.04 1016.10 1016.16 1016.20 1016.21 1016.15 1016.00 1015.73 1015.33 1014.84 1014.31 1013.79 1013.35 1013.05 1012.92 1012.96 1013.16 1013.47
1012.14 1012.15 1012.19 1012.32 1012.56 1012.91 1013.33 1013.77 1014.14 1014.41 1014.52 1014.50 1014.37 1014.19 1014.03 1013.96 1013.99 1014.13 1014.38 1014.69 1015.00 1015.29 1015.51 1015.67 1015.78 1015.87 1015.94 1016.03 1016.11 1016.17 1016.17 1016.08 1015.87 1015.54 1015.09 1014.58 1014.06 1013.60 1013.24 1013.03 1012.98 1013.08 1013.28
1012.06 1012.07 1012.11 1012.24 1012.49 1012.87 1013.33 1013.81 1014.23 1014.54 1014.70 1014.71 1014.60 1014.43 1014.27 1014.17 1014.16 1014.26 1014.46 1014.71 1014.97 1015.19 1015.37 1015.49 1015.57 1015.63 1015.70 1015.79 1015.90 1016.00 1016.06 1016.04 1015.91 1015.65 1015.27 1014.82 1014.33 1013.88 1013.50 1013.24 1013.12 1013.12 1013.21
1011.92 1011.97 1012.04 1012.20 1012.48 1012.88 1013.37 1013.88 1014.33 1014.68 1014.87 1014.91 1014.83 1014.67 1014.51 1014.39 1014.36 1014.41 1014.55 1014.74 1014.93 1015.09 1015.21 1015.27 1015.31 1015.34 1015.39 1015.47 1015.58 1015.70 1015.80 1015.84 1015.78 1015.61 1015.32 1014.94 1014.52 1014.10 1013.74 1013.46 1013.28 1013.21 1013.20
Thickness
5839 5832 5824 5819 5815 5811 5808 5804 5801 5798 5795 5792 5789 5786 5783 5781 5778 5776 5774 5772 5770 5768 5767 5766 5764 5763 5762 5761 5760 5760 5759 5758 5758 5757 5756 5755 5754 5753 5752 5751 5751 5749 5747
5841 5830 5822 5818 5813 5809 5806 5803 5800 5796 5793 5790 5787 5784 5782 5779 5777 5775 5772 5771 5769 5767 5766 5764 5763 5762 5761 5760 5759 5758 5757 5757 5757 5756 5755 5754 5752 5751 5751 5751 5750 5747 5746
5839 5828 5821 5816 5811 5808 5804 5801 5798 5795 5791 5788 5786 5783 5780 5778 5775 5773 5771 5769 5768 5766 5764 5763 5762 5760 5759 5758 5757 5757 5756 5756 5756 5755 5755 5754 5751 5750 5749 5749 5747 5746 5744
5837 5828 5820 5814 5809 5805 5802 5799 5796 5793 5790 5786 5784 5781 5778 5776 5774 5772 5770 5768 5766 5765 5763 5762 5760 5759 5758 5757 5756 5755 5755 5755 5755 5755 5755 5754 5752 5748 5747 5746 5745 5744 5743
5836 5826 5816 5811 5807 5803 5800 5796 5793 5790 5787 5784 5782 5779 5777 5775 5772 5770 5768 5767 5765 5764 5762 5760 5759 5758 5756 5755 5754 5754 5754 5754 5754 5754 5755 5754 5751 5747 5746 5745 5744 5742 5741
5832 5823 5813 5808 5804 5800 5797 5793 5790 5787 5784 5782 5780 5777 5775 5773 5771 5769 5767 5765 5764 5762 5761 5759 5757 5756 5755 5754 5753 5752 5752 5753 5753 5756 5755 5753 5749 5747 5745 5743 5742 5741 5740
5831 5820 5811 5805 5801 5797 5794 5791 5788 5785 5782 5779 5777 5775 5773 5771 5769 5767 5765 5763 5762 5761 5759 5757 5756 5754 5753 5752 5751 5751 5751 5751 5753 5756 5755 5752 5748 5746 5744 5742 5741 5740 5739
5831 5819 5809 5803 5799 5795 5791 5788 5785 5782 5779 5777 5775 5773 5771 5769 5767 5765 5763 5761 5760 5758 5757 5755 5754 5753 5752 5750 5749 5749 5749 5749 5753 5756 5755 5751 5748 5745 5743 5741 5740 5739 5738
5831 5818 5809 5802 5797 5792 5788 5785 5782 5779 5777 5774 5772 5770 5768 5766 5765 5763 5761 5759 5758 5756 5755 5754 5753 5751 5750 5749 5748 5747 5747 5748 5749 5754 5754 5750 5747 5745 5742 5740 5739 5738 5737
5828 5820 5811 5804 5797 5791 5787 5783 5779 5777 5774 5772 5769 5767 5765 5763 5762 5760 5759 5757 5756 5754 5753 5752 5751 5750 5748 5747 5746 5746 5745 5746 5749 5753 5754 5750 5747 5745 5742 5740 5738 5737 5736
5823 5818 5814 5806 5798 5794 5788 5782 5778 5775 5772 5769 5767 5764 5762 5761 5759 5757 5756 5754 5753 5751 5750 5749 5748 5747 5746 5745 5745 5744 5743 5745 5749 5752 5753 5749 5747 5745 5742 5740 5737 5736 5735
5812 5813 5810 5805 5798 5794 5791 5782 5778 5775 5771 5768 5766 5762 5760 5759 5757 5756 5754 5751 5749 5748 5748 5747 5747 5746 5745 5745 5745 5743 5742 5744 5747 5750 5750 5747 5745 5744 5742 5739 5737 5735 5734
5808 5807 5805 5799 5794 5792 5787 5781 5778 5775 5770 5766 5764 5761 5758 5757 5754 5753 5751 5748 5746 5744 5744 5744 5744 5743 5743 5744 5744 5742 5741 5743 5746 5747 5746 5745 5742 5742 5742 5739 5737 5735 5734
5803 5800 5799 5795 5790 5786 5782 5779 5775 5772 5767 5765 5761 5758 5756 5753 5751 5749 5748 5746 5743 5742 5742 5742 5741 5741 5741 5741 5741 5740 5739 5741 5742 5743 5743 5742 5741 5740 5740 5739 5736 5734 5733
5795 5794 5792 5789 5784 5780 5775 5772 5770 5766 5763 5760 5757 5753 5751 5749 5747 5745 5743 5742 5740 5739 5739 5737 5737 5737 5737 5738 5738 5738 5738 5738 5739 5739 5739 5739 5738 5738 5738 5737 5736 5734 5733
5789 5788 5787 5782 5777 5773 5768 5765 5763 5761 5757 5755 5753 5750 5747 5744 5742 5740 5738 5737 5736 5736 5735 5734 5734 5733 5732 5733 5733 5734 5735 5735 5736 5736 5736 5734 5734 5735 5735 5736 5735 5733 5732
5785 5784 5780 5776 5771 5766 5763 5760 5759 5756 5753 5749 5748 5746 5743 5740 5738 5736 5734 5734 5733 5733 5731 5731 5731 5730 5729 5729 5728 5729 5730 5731 5732 5734 5733 5733 5733 5732 5733 5734 5734 5732 5732
5781 5776 5774 5772 5766 5761 5758 5756 5755 5752 5749 5746 5745 5742 5739 5736 5733 5731 5731 5731 5730 5729 5728 5727 5726 5725 5724 5724 5724 5725 5726 5728 5730 5731 5731 5732 5732 5732 5732 5732 5732 5732 5731
5774 5770 5766 5764 5760 5757 5754 5752 5750 5747 5745 5744 5741 5738 5735 5733 5730 5728 5727 5727 5726 5724 5723 5723 5721 5719 5718 5719 5719 5721 5723 5725 5727 5729 5730 5731 5731 5731 5732 5732 5732 5731 5730
5769 5766 5761 5759 5756 5753 5750 5747 5745 5743 5742 5741 5738 5734 5731 5729 5726 5724 5723 5722 5721 5720 5718 5716 5714 5715 5714 5713 5715 5717 5719 5722 5725 5727 5728 5729 5730 5730 5732 5732 5731 5730 5730
5763 5760 5757 5754 5751 5748 5744 5741 5738 5737 5737 5736 5735 5732 5729 5725 5723 5720 5718 5716 5716 5714 5713 5711 5710 5708 5707 5709 5707 5707 5713 5719 5722 5724 5726 5727 5728 5729 5730 5730 5731 5730 5729
5759 5757 5755 5751 5748 5745 5742 5739 5737 5734 5733 5734 5732 5728 5726 5722 5719 5718 5714 5711 5710 5708 5707 5707 5705 5702 5701 5703 5699 5697 5698 5704 5713 5721 5722 5723 5724 5725 5726 5727 5728 5728 5728
5758 5755 5754 5748 5745 5742 5740 5737 5735 5732 5729 5727 5725 5724 5722 5719 5716 5713 5710 5707 5705 5702 5701 5701 5699 5697 5693 5695 5696 5692 5688 5689 5697 5707 5712 5716 5718 5719 5720 5722 5723 5724 5725
5757 5755 5751 5747 5743 5740 5737 5733 5728 5724 5720 5720 5720 5719 5718 5715 5713 5710 5707 5704 5700 5698 5696 5695 5695 5691 5689 5686 5689 5691 5691 5690 5684 5686 5696 5704 5709 5710 5713 5716 5718 5720 5721
5758 5754 5750 5745 5740 5737 5733 5730 5725 5721 5719 5718 5716 5714 5712 5711 5710 5708 5704 5701 5696 5693 5691 5689 5687 5686 5683 5681 5680 5681 5682 5684 5683 5677 5678 5687 5695 5701 5705 5709 5711 5713 5715
5757 5754 5749 5742 5736 5733 5730 5727 5722 5717 5714 5711 5709 5707 5706 5706 5706 5704 5701 5697 5692 5688 5685 5683 5681 5679 5677 5675 5674 5673 5672 5672 5673 5673 5672 5675 5680 5689 5696 5700 5703 5706 5708